Location: Ida Center
(41.8662°N, 83.5713°W)
Time: 07:44:00
(UTC+00:00)

Cosmos 1633 - Pass Details

Date: 17 November 2019
Orbit: 465 x 482 km, 82.5° (Epoch: 13 December)

Event Time Altitude Azimuth Distance (km) Brightness Sun altitude
Rises 23:17:44 0° 353° (N) 2,556 6.1 -12.3°
Reaches altitude 10° 23:19:52 10° 356° (N) 1,670 5.2 -12.7°
Maximum altitude 23:23:31 75° 82° (E) 503 2.4 -13.4°
Drops below altitude 10° 23:27:07 10° 168° (SSE) 1,649 5.3 -14.0°
Sets 23:29:11 0° 170° (S) 2,519 6.2 -14.4°
